Orbital Elements at Epoch 2459000.5 (2020-May-31.0) TDB
Reference: JPL 20 (heliocentric ecliptic J2000)
Element | Value | Uncertainty (1-sigma) | Units |
e | .2224816847544768 | 5.607e-08 | |
a | 2.600081115761379 | 8.8471e-09 | au |
q | 2.021610688628487 | 1.4651e-07 | au |
i | 9.623118049342814 | 6.6495e-06 | deg |
node | 6.59251383540378 | 1.953e-05 | deg |
peri | 20.1517337085476 | 2.2767e-05 | deg |
M | 45.53443452459184 | 8.4452e-06 | deg |
tp | 2458806.805977100882 (2019-Nov-19.30597710) | 3.6071e-05 | TDB |
period | 1531.365195850261 4.19 | 7.816e-06 2.14e-08 | d yr |
n | .2350843554336606 | 1.1999e-09 | deg/d |
Q | 3.17855154289427 | 1.0815e-08 | au |
|
| | Orbit Determination Parameters
Additional Information
|